#timestamp,LO_Frequency,Hit 
1500613215.0,286047042.1,N
1500613215.9,286047042.1,N
1500613235.8,286047039.8,N
1500613255.6,286047041.9,N
1500613275.4,286047040.1,N
1500613295.3,286047038.3,N
1500613315.1,286047041.2,N
1500613335.8,286047041.0,N
1500613355.7,286047038.9,N
1500613375.5,286047040.8,N
1500613395.3,286047041.1,N
1500613415.2,286047038.4,N
1500613435.9,286047040.8,N
1500613455.7,286047041.0,N
1500613475.6,286047038.2,N
1500613495.4,286047041.8,N
1500613515.2,286047043.9,N
1500613535.1,286047041.6,N
1500613536.0,286047041.6,N
1500613555.8,286047040.0,N
1500613575.6,286047039.0,N
1500613595.5,286047034.9,N
1500613615.3,286047037.6,N
1500613635.1,286047039.0,N
1500613655.9,286047041.2,N
1500613675.7,286047040.6,N
1500613695.5,286047041.9,N
1500613715.3,286047042.8,N
1500613735.2,286047038.2,N
1500613755.0,286047042.0,N
1500613755.9,286047042.0,N
1500613775.7,286047042.6,N
1500613795.6,286047042.3,N
1500613815.4,286047042.0,N
1500613835.2,286047042.4,N
1500613855.1,286047041.2,N
1500613856.0,286047041.2,N
1500613875.8,286047038.2,N
1500613895.6,286047038.2,N
1500613915.5,286047041.2,N
1500613935.3,286047042.6,N
1500613955.1,286047041.1,N
1500613975.9,286047042.3,N
1500613995.7,286047043.0,N
1500614015.5,286047042.9,N
1500614035.4,286047044.4,N
1500614055.2,286047045.6,N
1500614075.0,286047043.8,N
1500614075.9,286047043.8,N
1500614095.8,286047044.2,N
1500614115.6,286047043.0,N
1500614135.4,286047043.5,N
1500614155.3,286047042.0,N
1500614175.1,286047044.2,N
1500614195.8,286047043.5,N
1500614215.7,286047045.7,N
1500614235.5,286047045.4,N
1500614255.3,286047045.3,N
1500614275.2,286047045.4,N
1500614295.9,286047041.3,N
1500614315.7,286047043.9,N
1500614335.6,286047044.4,N
1500614355.4,286047045.7,N
1500614375.2,286047045.5,N
1500614395.1,286047043.1,N
1500614396.0,286047043.1,N
1500614415.8,286047043.9,N
1500614435.6,286047045.7,N
1500614455.4,286047045.0,N
1500614475.3,286047044.7,N
1500614495.1,286047046.7,N
1500614515.8,286047047.0,N
1500614535.7,286047045.5,N
1500614555.5,286047045.0,N
1500614575.3,286047045.0,N
1500614595.2,286047045.3,N
1500614615.9,286047046.9,N
1500614635.7,286047044.8,N
1500614655.6,286047043.3,N
1500614675.4,286047043.7,N
1500614695.2,286047047.1,N
1500614715.1,286047047.5,N
1500614716.0,286047047.5,N
1500614735.8,286047045.7,N
1500614755.6,286047043.5,N
1500614775.5,286047047.6,N
1500614795.3,286047046.8,N
1500614815.1,286047048.1,N
1500614835.9,286047049.1,N
1500614855.7,286047046.3,N
1500614875.5,286047047.3,N
1500614895.4,286047045.4,N
1500614915.2,286047046.1,N
1500614935.0,286047046.1,N
1500614935.9,286047046.1,N
1500614955.7,286047044.6,N
1500614975.6,286047048.6,N
1500614995.4,286047048.1,N
1500615015.2,286047051.8,N
1500615035.1,286047051.4,N
1500615036.0,286047051.4,N
1500615055.8,286047051.1,N
1500615075.6,286047052.3,N
1500615095.5,286047053.7,N
1500615115.3,286047053.2,N
1500615135.1,286047055.4,N
1500615155.9,286047056.6,N
1500615175.7,286047052.5,N
1500615195.5,286047054.7,N
1500615215.4,286047057.2,N
1500615235.2,286047056.1,N
1500615255.0,286047056.2,N
1500615255.9,286047056.2,N
1500615275.8,286047056.3,N
1500615295.6,286047058.8,N
1500615315.4,286047055.7,N
1500615335.3,286047057.6,N
1500615355.1,286047061.8,N
1500615356.0,286047061.8,N
1500615375.8,286047061.5,N
1500615395.7,286047061.7,N
1500615415.5,286047059.3,N
1500615435.3,286047061.8,N
1500615455.2,286047061.6,N
1500615475.9,286047060.6,N
1500615495.7,286047060.7,N
1500615515.5,286047063.2,N
1500615535.4,286047061.2,N
1500615555.2,286047061.2,N
1500615575.0,286047061.7,N
1500615575.9,286047061.7,N
1500615595.8,286047060.3,N
1500615615.6,286047060.3,N
1500615635.4,286047054.1,N
1500615655.3,286047051.1,N
1500615675.1,286047046.5,N
1500615695.8,286047046.2,N
1500615715.7,286047046.5,N
1500615735.5,286047043.8,N
1500615755.3,286047043.6,N
1500615775.2,286047043.9,N
1500615795.9,286047042.1,N
1500615815.7,286047041.3,N
1500615835.6,286047044.4,N
1500615855.4,286047043.7,N
1500615875.2,286047043.2,N
1500615895.1,286047045.6,N
1500615896.0,286047045.6,N
1500615915.8,286047046.0,N
1500615935.6,286047045.1,N
1500615955.5,286047042.8,N
1500615975.3,286047039.8,N
1500615995.1,286047047.5,N
1500616015.9,286047050.2,N
1500616035.7,286047053.3,N
1500616055.5,286047052.5,N
1500616075.4,286047053.7,N
1500616095.2,286047054.1,N
1500616115.0,286047056.4,N
1500616115.9,286047056.4,N
1500616135.8,286047056.3,N
1500616155.6,286047058.8,N
1500616175.4,286047056.7,N
1500616195.3,286047054.3,N
1500616215.1,286047056.9,N
1500616216.0,286047056.9,N
1500616235.8,286047057.1,N
1500616255.7,286047056.8,N
1500616275.5,286047056.8,N
1500616295.3,286047055.8,N
1500616315.2,286047056.0,N
1500616335.9,286047056.2,N
1500616355.7,286047056.6,N
1500616375.6,286047058.5,N
1500616395.4,286047055.0,N
1500616415.2,286047053.4,N
1500616435.0,286047054.1,N
1500616436.0,286047054.1,N
1500616455.8,286047056.0,N
1500616475.6,286047056.7,N
1500616495.4,286047057.0,N
1500616515.3,286047056.0,N
1500616535.1,286047057.0,N
1500616555.8,286047056.7,N
1500616575.7,286047055.8,N
1500616595.5,286047056.6,N
1500616615.3,286047051.0,N
1500616635.2,286047053.2,N
1500616655.9,286047052.1,N
1500616675.7,286047053.4,N
1500616695.6,286047046.9,N
1500616715.4,286047044.2,N
1500616735.2,286047042.4,N
1500616755.1,286047040.7,N
1500616756.0,286047040.7,N
1500616775.8,286047036.9,N
1500616795.6,286047039.5,N
